Regional Weather Roundup
Issued by NWS Charleston, SC

Current Version | Previous Version | Text Only | Print | Product List | Glossary Off
Versions: 1 2 3 4 5 6 7 8 9 10 11 12 13 14 15 16 17 18 19 20 21 22 23 24 25 26 27 28 29 30 31 32 33 34 35 36 37 38 39 40 41 42 43 44 45 46 47 48 49 50
000 ASUS42 KCHS 030128 RWRCHS REGIONAL WEATHER ROUNDUP NATIONAL WEATHER SERVICE CHARLESTON SC 900 PM EDT MON MAY 02 2016 NOTE: "FAIR" INDICATES FEW OR NO CLOUDS BELOW 12,000 FEET WITH NO SIGNIFICANT WEATHER AND/OR OBSTRUCTIONS TO VISIBILITY. NOT ALL STATIONS ARE QUALITY CONTROLLED. USE DATA WITH CAUTION... ESPECIALLY DEWPOINT OBSERVATIONS. SCZ027-030-031-034>040-042>050-030200- ...SOUTHEAST SOUTH CAROLINA... CITY SKY/WX TMP DP RH WIND PRES REMARKS N CHARLESTON CLOUDY 75 71 87 S5 29.98R WATERFRONT PRK N/A 75 73 93 S7 29.95S MOUNT PLEASANT NOT AVBL JOHNS ISLAND NOT AVBL PINOPOLIS N/A 75 70 83 VRB2 29.91R MONCKS CORNER NOT AVBL SUMMERVILLE MOCLDY 72 72 100 CALM 29.99R BEAUFORT MCAS LGT RAIN 74 72 93 SW5 29.98R FOG BEAUFORT ARPT MOCLDY 73 73 100 SW5 29.98R HILTON HEAD IS NOT AVBL WALTERBORO NOT AVBL ALLENDALE NOT AVBL ...SOUTHERN MIDLANDS AND PEE DEE... CITY SKY/WX TMP DP RH WIND PRES REMARKS GEORGETOWN NOT AVBL KINGSTREE NOT AVBL ORANGEBURG CLOUDY 70 67 90 N5 29.99R BARNWELL NOT AVBL AIKEN NOT AVBL MANNING NOT AVBL COLUMBIA CLOUDY 70 67 90 S7 29.95R SUMTER NOT AVBL FLORENCE LGT RAIN 73 68 84 SW13 29.97R MYRTLE BEACH NOT AVBL N MYRTLE BEACH CLOUDY 73 70 90 S15 29.98R $$ GAZ063-065-086>088-099>101-113>116-118-119-134>141-150-030200- ...SOUTHEAST GEORGIA... CITY SKY/WX TMP DP RH WIND PRES REMARKS SAVANNAH ARPT CLOUDY 72 70 93 CALM 29.97S HUNTER AAF NOT AVBL FORT STEWART NOT AVBL STATESBORO HVY RAIN 72 72 99 SE6 29.97S SYLVANIA RAIN 70 68 93 SW5 29.98R CLAXTON FAIR 70 70 100 CALM 29.99S ...CSRA...CENTRAL AND FAR SOUTHEAST GEORGIA... CITY SKY/WX TMP DP RH WIND PRES REMARKS THOMSON CLOUDY 73 72 98 SE3 29.97R AUGUSTA-BUSH LGT RAIN 70 67 90 SE7 29.93S AUGUSTA-DANIEL HVY RAIN 70 67 90 E5 29.96R FOG SWAINSBORO FAIR 72 68 88 SE8 29.96F VIDALIA CLOUDY 70 68 94 SE5 29.97F EASTMAN FAIR N/A N/A N/A CALM 29.97F HAZLEHURST FAIR 74 71 89 CALM 29.96S ALMA CLOUDY 71 70 96 E3 29.97R WAYCROSS CLOUDY 74 72 93 E5 29.97R JESUP MOCLDY 73 72 94 CALM 29.98R BAXLEY MOCLDY 72 72 100 CALM 29.97R BRUNSWICK CLOUDY 81 73 78 SW7 29.99R THUNDER SAINT SIMONS CLOUDY 76 74 93 S6 29.97R $$ SCZ027-028-034-036>038-045-046-048>050-GAZ119-141-030200- ...LAKE AND SUPPLEMENTAL COASTAL OBSERVATIONS... STATION/POSITION TIME TEMP WIND PRES WAVE SWELL AIR SEA DIR/SP/G HT/PER HT/PER/DIR (UTC) (F) (DEG/KT/KT) (MB) (FT/S) (FT/S/D) WINYAH BAY 0045 75 220/ 8 1014.0S LAKE MURRAY 0000 74 170/ 15/ 20 1013.2R ACE BASIN NERRS 0000 75 CALM 1015.0S FORT PULASKI 0100 76 74 1015.5R SAPELO ISLAND 0100 76 180/ 6 1015.0R $$ ANZ835-935-AMZ111-154-330-350-352-354-370-450-454-472-030200- ...C-MAN AND BUOY OBSERVATIONS... STATION/POSITION TIME TEMP WIND PRES WAVE SWELL AIR SEA DIR/SP/G HT/PER HT/PER/DIR (UTC) (F) (DEG/KT/KT) (MB) (FT/S) (FT/S/D) BUOY 41004 0050 76 75 180/ 6/ 8 1015.0R 3/ 9 3/ 9 BUOY 41008 NOT AVBL FOLLY BEACH CMAN 0100 74 200/ 4/ 6 1015.3R CAPERS NEARSHORE 0108 74 74 190/ 6/ 10 1015.3R FRIPP NEARSHORE 0008 75 75 190/ 10/ 12 1014.0R STATION/POSITION TIME TEMP WIND PRES WAVE SWELL AIR SEA DIR/SP/G HT/PER HT/PER/DIR (UTC) (F) (DEG/KT/KT) (MB) (FT/S) (FT/S/D) 5E ST. MARYS GA 0021 74 N/A 3/ 4 FRYING PAN BUOY 0100 75 74 190/ 10/ 12 1015.5R BUOY 41025 0050 75 74 220/ 14/ 17 1015.0F 4/11 2/ 90/11 CAPE LOOKOUT NC 0100 71 200/ 8/ 9 1015.2R BUOY 41002 0050 74 75 160/ 14/ 16 1018.5R 4/11 3/ 40/11 BUOY 41010 0020 77 79 140/ 16/ 17 1016.5R ST AUGUSTINE FL 0100 75 75 150/ 12/ 14 1015.5R $$

USA.gov is the U.S. government's official web portal to all federal, state and local government web resources and services.